Погода в Кушокы

Казахстан     50°14′14″N   73°24′07″E
темп.,
°C
ветер,
м/с
пор.,
м/с
влажн.,
%
обл.,
%
осадки,
мм/ч
давл.,
гПа
погр.,
м
2 марта, вт
вт200:00−9з5118699 0.4 1017205
03:00−12зюз469385 0.0 101897
06:00−12зюз349593 0.0 101880
09:00−12юз2395100 0.0 101874
12:00−9зюз4692100 0.0 1017318
15:00−7зюз5794100 0.3 1016471
18:00−8зюз5992100 0.5 1017517
21:00−13зюз599698 0.0 1019197
3 марта, ср
ср300:00−15зюз5129689 0.1 1022329
03:00−17зюз6129699 0.1 1023405
06:00−17юз61295100 0.1 1025378
09:00−17юз71295100 0.1 1025384
12:00−15юз81293100 0.1 1025442
15:00−12юз8128992 0.0 1024468
18:00−12юз7138853 0.0 1024406
21:00−13юз6149484 0.0 1025341
4 марта, чт
чт400:00−11юз7159492 0.1 1024374
03:00−10юз71592100 0.0 1023407
06:00−11ююз61488100 0.0 1023333
09:00−10ююз61585100 0.0 1021361
12:00−5ююз81681100 0.0 1020670
15:00−3ююз9157848 0.0 1018791
18:00−5ю8148474 0.0 1017554
21:00−7ююз7158991 0.0 1016446
5 марта, пт
пт500:00−7ююз6139495 0.1 1015410
03:00−5юз71393100 0.4 1015527
06:00−8з6129495 0.5 1018329
09:00−11зюз6139496 0.0 1024365
12:00−9зюз8129197 0.1 1027504
15:00−7юз9148231 0.0 1028631
18:00−8юз9168215 0.0 1028521
21:00−10юз9178575 0.0 1028438
6 марта, сб
сб600:00−11юз9178654 0.0 1028399
03:00−12юз8178571 0.0 1027375
06:00−12юз7148869 0.0 1026337
09:00−12юз7149087 0.0 1026297
12:00−8юз8129063 0.0 1024418
15:00−5юз7118734 0.0 1023462
18:00−7юз479217 0.0 1023126
21:00−11юз45920 0.0 102464